loading
|

STARLINK-32156, 60278

Orbit data source: Space-Track

STARLINK-32156, 60278 is a payload satellite owned by SpaceX/Seattle (US) in LEO that was launched on Sun, 28 Jul 2024 UTC via an FALCON 9 launch vehicle from the Air Force Eastern Test Range (AFETR). Payloads include a variety of satellites, spacecraft, and rockets equipped with specific instruments for various scientific and technological missions. These include communications satellites like Starlink; space stations such as the ISS; scientific satellites like the Hubble; Earth observation satellites from companies like Planet Labs, Umbra, and HawkEye 360; GPS; miniature CubeSats for education and research; and military/defense satellites.

Loading next visibility...
Next conjunction unknown
Loading greatness...
STARLINK-32156 details
Identifier
60278, 2024-132A
Orbit
LEO
Last TLE update8 hours ago
Origin
Flag of USSpaceX/Seattle (US)
ManufacturerSpaceX/Seattle
MissionOperational spacecraft
Bus & MotorSTARLINK V2M, Unknown motor
Mass750 kg wet, ~700 kg dry
Launch date (UTC)
2024-07-28 (3 months ago)
Launch vehicle
FALCON 9
Launch site
Air Force Eastern Test Range (AFETR)
Object type
Payload
Rocket body
Debris
Shape & HBRUnknown
Radar Cross SectionLarge (>1 m²)

Expand to show TLE details & history

TLE from 8 hours ago
0 STARLINK-32156
1 60278U 24132A   24288.22279759 -.00000129  00000-0  77616-5 0  9997
2 60278  53.1591 268.0660 0001248  85.4194 274.6949 15.30194722 13259
Epoch: 2024-10-14T05:20Z
Definitive object data (Epoch: 2024-10-14T05:20:49.711Z)
Latitude-0.00006°
Longitude164.6058°
Altitude476.061 km
Speed7.629 km/s
True Right ascension17h 52m 15s
True Declination0° 00' 00"
Sunlit
Object was in daylight at TLE epoch
Predictive object data (real-time)
Latitude47.66774°
Longitude-71.88102°
Altitude479.752 km
Speed7.632 km/s
Apparent Right ascension23h 04m 03s
Apparent Declination8° 06' 03"
Sunlit
Object is in full shadow
Predictive observer data (real-time)
Local Sidereal Time08:14:27
Azimuth310.846° NW
Elevation-28.054°
Doppler factor1
Orbital elements
Apogee476.343 km
Perigee474.632 km
Semi-major axis6,853.624 km
Eccentricity0.0001248
Inclination53.1591°
RAAN268.066°
Arg. of periapsis85.4194°
True anomaly274.68065°
Mean anomaly274.6949°
Eccentric anomaly274.68777°
Mean motion3.82528 °/min
BSTAR0.0000077616
Period94.11 mins
No data available

STARLINK-32156 Visibility forecast

Observer location: 39.9160978°, -105.1181434

Span
Click to sort rows by Start time (UTC) header in descending order
Start Az.
Max El. time (UTC)
Max El. Az.
Max El.
End time (UTC)
End Az.
4 mins2024-10-15 00:18:32.612Z166.192° S2024-10-15 00:20:32.612Z131.531° SE16.042°2024-10-15 00:22:32.612Z94.279° ESE
5 mins2024-10-15 01:56:32.612Z255.345° W2024-10-15 01:58:32.612Z341.692° N39.086°2024-10-15 02:01:32.612Z41.58° NE
4 mins2024-10-15 06:53:32.612Z350.21° N2024-10-15 06:55:32.612Z34.898° NE19.671°2024-10-15 06:57:32.612Z71.541° E
5 mins2024-10-15 08:31:32.612Z298.074° NW2024-10-15 08:33:32.612Z199.094° SSW42.076°2024-10-15 08:36:32.612Z141.448° SSE